When you browse on this site, cookies collect data to enhance your experience and personalize the content and advertising you see.
Visit our Privacy Policy to learn more. By continuing to use the site, you agree to this use of cookies and data.
  • Em Portugal
  • Lista de países
  • Para 7 dias
  • Temperatura da água
  • Mapa do tempo
  • Widgets de tempo
  • user-avatar
    Iniciar Sessão

    Previsão horária em Volchevka

    Hoje, 29 Maio, Sexta-feira

    Tempo Temperatura Precipitação Vento Pressão Humidade
    00:00 +10°C° 0 mm 2 m/s 745 mmHg 85%
    01:00 +10°C° 0 mm 2 m/s 745 mmHg 87%
    02:00 +10°C° 0 mm 2 m/s 745 mmHg 87%
    03:00 +10°C° 0 mm 2 m/s 745 mmHg 88%
    04:00 +10°C° 0 mm 2 m/s 746 mmHg 88%
    05:00 +11°C° 0 mm 3 m/s 746 mmHg 80%
    06:00 +13°C° 0 mm 3 m/s 746 mmHg 72%
    07:00 +16°C° 0 mm 3 m/s 746 mmHg 64%
    08:00 +17°C° 0 mm 4 m/s 746 mmHg 58%
    09:00 +18°C° 0 mm 4 m/s 746 mmHg 52%
    10:00 +20°C° 0 mm 4 m/s 746 mmHg 46%
    11:00 +20°C° 0 mm 4 m/s 745 mmHg 45%
    12:00 +20°C° 0 mm 4 m/s 745 mmHg 44%
    13:00 +21°C° 0 mm 4 m/s 745 mmHg 43%
    14:00 +21°C° 0 mm 4 m/s 745 mmHg 45%
    15:00 +21°C° 0 mm 4 m/s 745 mmHg 46%
    16:00 +21°C° 0 mm 3 m/s 745 mmHg 47%
    17:00 +20°C° 0 mm 3 m/s 745 mmHg 52%
    18:00 +19°C° 0 mm 2 m/s 745 mmHg 57%
    19:00 +18°C° 0 mm 2 m/s 745 mmHg 62%
    20:00 +17°C° 0 mm 2 m/s 745 mmHg 67%
    21:00 +15°C° 0 mm 2 m/s 745 mmHg 72%
    22:00 +13°C° 0 mm 1 m/s 745 mmHg 77%
    23:00 +13°C° 0 mm 1 m/s 745 mmHg 77%

    Amanhã, 30 Maio, Sábado

    Tempo Temperatura Precipitação Vento Pressão Humidade
    00:00 +12°C° 0 mm 1 m/s 745 mmHg 78%
    01:00 +12°C° 0 mm 1 m/s 744 mmHg 78%
    02:00 +12°C° 0 mm 2 m/s 744 mmHg 80%
    03:00 +12°C° 0 mm 2 m/s 744 mmHg 81%
    04:00 +12°C° 0 mm 2 m/s 745 mmHg 82%
    05:00 +12°C° 0 mm 3 m/s 744 mmHg 77%
    06:00 +14°C° 0 mm 3 m/s 744 mmHg 72%
    07:00 +17°C° 0 mm 4 m/s 744 mmHg 67%
    08:00 +17°C° 0 mm 3 m/s 744 mmHg 67%
    09:00 +18°C° 0 mm 3 m/s 743 mmHg 67%
    10:00 +18°C° 0 mm 3 m/s 743 mmHg 67%
    11:00 +18°C° 0 mm 4 m/s 743 mmHg 68%
    12:00 +18°C° 0 mm 4 m/s 743 mmHg 70%
    13:00 +18°C° 0 mm 4 m/s 743 mmHg 71%
    14:00 +17°C° 0.1 mm 3 m/s 743 mmHg 75%
    15:00 +16°C° 0.1 mm 3 m/s 743 mmHg 80%
    16:00 +15°C° 0.1 mm 2 m/s 743 mmHg 84%
    17:00 +15°C° 0 mm 2 m/s 742 mmHg 85%
    18:00 +14°C° 0 mm 2 m/s 742 mmHg 86%
    19:00 +14°C° 0 mm 1 m/s 742 mmHg 86%
    20:00 +13°C° 0 mm 1 m/s 742 mmHg 87%
    21:00 +13°C° 0 mm 1 m/s 742 mmHg 88%
    22:00 +13°C° 0 mm 1 m/s 743 mmHg 89%
    23:00 +12°C° 0 mm 1 m/s 742 mmHg 89%

    Depois de amanhã, 31 Maio, Domingo

    Tempo Temperatura Precipitação Vento Pressão Humidade
    00:00 +12°C° 0 mm 1 m/s 742 mmHg 88%
    01:00 +12°C° 0 mm 1 m/s 742 mmHg 87%
    02:00 +12°C° 0 mm 1 m/s 741 mmHg 84%
    03:00 +11°C° 0 mm 1 m/s 741 mmHg 81%
    04:00 +11°C° 0 mm 1 m/s 741 mmHg 78%
    05:00 +10°C° 0 mm 2 m/s 740 mmHg 77%
    06:00 +10°C° 0 mm 2 m/s 740 mmHg 75%
    07:00 +9°C° 0 mm 2 m/s 740 mmHg 74%
    08:00 +9°C° 0.9 mm 3 m/s 739 mmHg 79%
    09:00 +9°C° 0.9 mm 3 m/s 739 mmHg 85%
    10:00 +8°C° 0.9 mm 3 m/s 739 mmHg 90%
    11:00 +8°C° 1.4 mm 3 m/s 739 mmHg 92%
    12:00 +8°C° 1.4 mm 3 m/s 738 mmHg 93%
    13:00 +7°C° 1.4 mm 2 m/s 738 mmHg 94%
    14:00 +8°C° 1 mm 2 m/s 738 mmHg 94%
    15:00 +8°C° 1 mm 2 m/s 738 mmHg 93%
    16:00 +8°C° 1 mm 2 m/s 738 mmHg 92%
    17:00 +8°C° 0 mm 2 m/s 738 mmHg 92%
    18:00 +8°C° 0 mm 3 m/s 737 mmHg 91%
    19:00 +8°C° 0 mm 3 m/s 737 mmHg 90%
    20:00 +8°C° 0 mm 2 m/s 737 mmHg 92%
    21:00 +8°C° 0 mm 1 m/s 737 mmHg 94%
    22:00 +8°C° 0 mm 1 m/s 736 mmHg 96%
    23:00 +8°C° 0.1 mm 1 m/s 736 mmHg 97%

    1 Junho, Segunda-feira

    Tempo Temperatura Precipitação Vento Pressão Humidade
    00:00 +7°C° 0.1 mm 1 m/s 736 mmHg 97%
    01:00 +7°C° 0.1 mm 1 m/s 736 mmHg 97%
    02:00 +7°C° 0 mm 1 m/s 736 mmHg 97%
    03:00 +7°C° 0 mm 1 m/s 735 mmHg 97%
    04:00 +7°C° 0 mm 1 m/s 735 mmHg 97%
    05:00 +7°C° 0.1 mm 2 m/s 735 mmHg 92%
    06:00 +8°C° 0.1 mm 2 m/s 735 mmHg 88%
    07:00 +8°C° 0.1 mm 2 m/s 736 mmHg 84%
    08:00 +10°C° 0.1 mm 3 m/s 736 mmHg 75%
    09:00 +11°C° 0.1 mm 3 m/s 736 mmHg 66%
    10:00 +12°C° 0.1 mm 4 m/s 736 mmHg 58%
    11:00 +13°C° 0.1 mm 3 m/s 736 mmHg 56%
    12:00 +13°C° 0.1 mm 3 m/s 736 mmHg 55%
    13:00 +14°C° 0.1 mm 2 m/s 737 mmHg 54%
    14:00 +14°C° 0.1 mm 2 m/s 737 mmHg 53%
    15:00 +15°C° 0.1 mm 2 m/s 737 mmHg 51%
    16:00 +15°C° 0.1 mm 2 m/s 737 mmHg 50%
    17:00 +14°C° 0.1 mm 1 m/s 737 mmHg 57%
    18:00 +14°C° 0.1 mm 1 m/s 737 mmHg 63%
    19:00 +13°C° 0.1 mm 1 m/s 737 mmHg 69%
    20:00 +11°C° 0 mm 1 m/s 737 mmHg 75%
    21:00 +10°C° 0 mm 1 m/s 737 mmHg 81%
    22:00 +7°C° 0 mm 0 m/s 738 mmHg 86%
    23:00 +7°C° 0 mm 0 m/s 738 mmHg 88%

    2 Junho, Terça-feira

    Tempo Temperatura Precipitação Vento Pressão Humidade
    00:00 +7°C° 0 mm 0 m/s 738 mmHg 90%
    01:00 +6°C° 0 mm 0 m/s 738 mmHg 91%
    02:00 +6°C° 0.1 mm 0 m/s 738 mmHg 93%
    03:00 +6°C° 0.1 mm 0 m/s 738 mmHg 94%
    04:00 +6°C° 0.1 mm 0 m/s 738 mmHg 95%
    05:00 +8°C° 0.1 mm 1 m/s 738 mmHg 92%
    06:00 +9°C° 0.1 mm 1 m/s 738 mmHg 89%
    07:00 +10°C° 0.1 mm 1 m/s 738 mmHg 85%
    08:00 +10°C° 0.3 mm 1 m/s 739 mmHg 87%
    09:00 +10°C° 0.3 mm 1 m/s 739 mmHg 89%
    10:00 +9°C° 0.3 mm 1 m/s 739 mmHg 90%
    11:00 +10°C° 0.4 mm 1 m/s 739 mmHg 89%
    12:00 +9°C° 0.4 mm 2 m/s 739 mmHg 88%
    13:00 +9°C° 0.4 mm 2 m/s 739 mmHg 86%
    14:00 +10°C° 0.2 mm 2 m/s 739 mmHg 85%
    15:00 +10°C° 0.2 mm 2 m/s 739 mmHg 84%
    16:00 +10°C° 0.2 mm 2 m/s 739 mmHg 83%
    17:00 +10°C° 0.1 mm 3 m/s 739 mmHg 84%
    18:00 +10°C° 0.1 mm 3 m/s 739 mmHg 85%
    19:00 +10°C° 0.1 mm 3 m/s 739 mmHg 86%
    20:00 +8°C° 0 mm 2 m/s 739 mmHg 89%
    21:00 +8°C° 0 mm 1 m/s 739 mmHg 93%
    22:00 +6°C° 0 mm 1 m/s 739 mmHg 96%
    23:00 +6°C° 0 mm 1 m/s 739 mmHg 96%

    3 Junho, Quarta-feira

    Tempo Temperatura Precipitação Vento Pressão Humidade
    00:00 +6°C° 0 mm 1 m/s 739 mmHg 96%
    01:00 +6°C° 0 mm 1 m/s 739 mmHg 96%
    02:00 +6°C° 0 mm 1 m/s 739 mmHg 96%
    03:00 +6°C° 0 mm 1 m/s 739 mmHg 96%
    04:00 +6°C° 0 mm 1 m/s 739 mmHg 96%
    05:00 +7°C° 0 mm 1 m/s 739 mmHg 90%
    06:00 +8°C° 0 mm 2 m/s 740 mmHg 85%
    07:00 +10°C° 0 mm 2 m/s 740 mmHg 79%
    08:00 +13°C° 0 mm 2 m/s 740 mmHg 68%
    09:00 +14°C° 0 mm 2 m/s 739 mmHg 58%
    10:00 +16°C° 0 mm 2 m/s 739 mmHg 47%
    11:00 +18°C° 0 mm 1 m/s 739 mmHg 44%
    12:00 +20°C° 0 mm 1 m/s 739 mmHg 40%
    13:00 +19°C° 0 mm 0 m/s 739 mmHg 37%
    14:00 +21°C° 0 mm 1 m/s 739 mmHg 38%
    15:00 +20°C° 0 mm 1 m/s 739 mmHg 39%
    16:00 +18°C° 0 mm 2 m/s 739 mmHg 40%
    17:00 +17°C° 0.3 mm 2 m/s 739 mmHg 53%
    18:00 +15°C° 0.3 mm 1 m/s 739 mmHg 66%
    19:00 +14°C° 0.3 mm 1 m/s 739 mmHg 79%
    20:00 +12°C° 0 mm 1 m/s 739 mmHg 81%
    21:00 +11°C° 0 mm 1 m/s 739 mmHg 84%
    22:00 +10°C° 0 mm 1 m/s 739 mmHg 86%
    23:00 +9°C° 0 mm 1 m/s 739 mmHg 87%
    Mostrar mais